Location: Desert Center
(33.7130°N, 115.4010°W)
Time: 19:05:17
(UTC-07:00)

Daily predictions for brighter satellites

Satellite Brightness Start Highest point End
(mag) Time Altitude Azimuth Time Altitude Azimuth Time Altitude Azimuth
NOSS 3-4 (A) 4.0 19:08:05 10° NNW 19:15:16 87° ENE 19:22:52 10° SSE
NOSS 3-4 (C) 3.9 19:08:11 10° NNW 19:15:22 86° ENE 19:22:59 10° SSE
Cosmos 1727 Rocket 4.4 19:15:12 10° NNW 19:21:20 69° W 19:27:27 10° S
Cosmos 1937 Rocket 3.6 19:19:07 10° S 19:24:13 59° ESE 19:29:25 10° NNE
Meteor 2-15 Rocket 4.4 19:19:30 10° N 19:25:41 80° E 19:31:48 10° S
Cosmos 1680 Rocket 3.9 19:21:40 10° NNW 19:26:54 69° WSW 19:32:05 10° S
COSMOS 2406 3.4 19:21:54 10° NNW 19:27:33 56° ENE 19:33:07 10° SE
Lacrosse 5 2.0 19:23:22 10° SSW 19:28:20 57° SE 19:33:17 10° NE
Cosmos 2228 3.9 19:24:32 10° SSW 19:28:41 54° W 19:32:51 10° N
OE (NEXTSAT) 4.4 19:28:12 10° SW 19:31:47 78° SE 19:35:22 10° ENE
Cosmos 2298 Rocket 4.1 19:26:50 10° SSW 19:32:08 89° E 19:37:28 10° NNE
Delta 2 Rocket 3.7 19:28:32 10° W 19:33:22 68° N 19:37:14 12° E
SeaSat 1 2.5 19:31:38 10° SE 19:36:30 65° ENE 19:41:23 10° NNW
Cosmos 1844 3.8 19:31:48 10° SSW 19:37:33 87° ESE 19:43:22 10° NNE
FREGAT/IRIS 2.7 19:34:38 10° S 19:37:41 82° W 19:40:46 10° NNW
Cosmos 405 3.8 19:36:09 10° SSW 19:39:36 55° W 19:43:04 10° N
Cosmos 1000 Rocket 4.4 19:34:52 10° N 19:41:03 75° E 19:47:15 10° S
CZ-3B DEB 3.7 19:30:50 10° SW 19:44:44 71° NW 19:50:55 10° NE
CZ-2D R/B 4.1 19:42:31 10° SE 19:45:52 29° ENE 19:49:16 10° NNE
Cosmos 2123 Rocket 4.3 19:42:51 10° N 19:48:54 46° E 19:54:52 10° SSE
Cosmos 1805 4.1 19:48:28 10° SSE 19:51:48 28° E 19:55:10 10° NNE
Helios 1A 4.1 19:50:45 18° ESE 19:52:33 24° ENE 19:55:55 10° NNE
Helios 1B rocket 3.1 19:50:44 10° NE 19:54:26 31° E 19:58:05 10° SSE
Cosmos 1437 Rocket 3.5 19:50:57 10° SSW 19:54:50 59° W 19:58:50 10° N
Cosmos 1867 4.5 19:50:46 10° SSE 19:55:12 26° ESE 19:59:40 10° NE
SJ-6B 3.5 19:52:06 10° S 19:55:46 54° W 19:59:25 10° NNW
Lacrosse 4 Rocket 3.4 19:56:53 10° WSW 20:00:28 30° WNW 20:04:06 10° N
Meteor 1-22 Rocket 4.3 19:55:19 10° S 20:01:02 88° W 20:07:01 10° N
Resurs 1-3 3.5 20:00:27 10° SSE 20:04:46 65° ENE 20:09:07 10° N
Yuri Rocket 3.6 20:03:57 10° WSW 20:07:52 40° S 20:09:36 26° SE
GPS 2-05 Rocket1 3.7 20:11:09 10° SW 20:14:23 32° SSE 20:14:30 32° SSE
Cosmos 1758 3.4 20:12:10 10° SSE 20:16:00 49° E 20:19:51 10° NNE
Spot 2 Rocket 3.5 20:12:23 10° SSE 20:17:29 84° WSW 20:22:37 10° NNW
SAR-Lupe-4 3.6 20:19:40 48° ESE 20:20:14 55° ENE 20:23:46 10° N
Tiangong 1 2.4 20:17:44 10° NW 20:20:13 26° NNE 20:20:13 26° NNE
Cosmos 2344 4.2 20:12:53 10° SW 20:20:26 60° NW 20:28:39 10° NNE
In-Cosmos 22 3.9 20:18:03 10° N 20:23:22 72° E 20:27:42 15° SSE
Cosmos 1939 Rocket 4.3 20:25:22 24° NE 20:25:22 24° NE 20:27:46 10° NNE
USA 186 3.9 20:28:06 12° N 20:28:06 12° N 20:28:19 10° N
Cosmos 1953 2.2 20:22:13 10° S 20:26:14 63° E 20:30:16 10° NNE
Cosmos 2278 Rocket 2.8 20:24:41 10° SSW 20:30:16 59° WNW 20:35:52 10° NNE
H-2A R/B 3.9 20:26:53 10° S 20:30:32 43° W 20:34:16 10° NNW
Cosmos 1459 Rocket 4.4 20:29:44 34° ESE 20:31:11 39° E 20:36:52 10° NNE
USA 215 3.3 20:26:46 10° NE 20:33:19 79° NW 20:39:49 10° SW
Cosmos 2173 Rocket 4.3 20:32:36 38° ESE 20:33:20 39° E 20:39:02 10° NNE
Cosmos 1833 Rocket 3.8 20:30:09 10° N 20:34:24 25° NE 20:34:24 25° NE
Okean 3 Rocket 3.4 20:30:36 10° N 20:35:01 88° E 20:36:57 33° S
Envisat 3.1 20:34:42 46° E 20:35:25 50° ENE 20:40:19 10° N
SAR-Lupe-1 4.1 20:39:57 75° NNW 20:39:57 75° NNW 20:43:16 10° NNW
Cosmos 1125 Rocket 3.3 20:36:34 10° SSW 20:41:45 85° ESE 20:46:58 10° NNE
Cosmos 2297 3.6 20:36:56 10° SSW 20:42:36 76° ESE 20:48:20 10° NNE
Meteor 1-4 Rocket 3.5 20:48:51 41° NNW 20:48:51 41° NNW 20:51:23 10° N
Cosmos 1544 4.4 20:46:32 10° SSW 20:49:57 40° W 20:53:26 10° N
GP-B 3.0 20:52:13 72° SSW 20:52:38 83° W 20:57:05 10° N
Resurs 01 Rocket 3.6 20:49:58 10° SSW 20:53:41 27° W 20:57:25 10° NW
ATLAS 5 CENTAUR R/B 4.0 20:49:50 10° SSW 20:50:05 11° SSW 20:50:05 11° SSW
SL-27 R/B 4.2 20:54:14 10° NW 20:57:23 30° W 20:58:00 28° WSW
RESURS DK-1 3.1 20:53:47 10° NW 20:57:46 47° WSW 20:58:05 46° SW
Meteor 1-29 4.4 20:56:52 10° N 21:00:06 37° WNW 21:00:09 37° WNW
ERS-1 Rocket 4.0 21:03:31 34° NNE 21:03:31 34° NNE 21:06:36 10° N
Cosmos 2082 Rocket 2.6 20:58:54 10° N 21:03:31 47° NE 21:03:31 47° NE
Cosmos 1818 3.9 21:02:06 10° NNW 21:06:41 54° NNE 21:06:41 54° NNE
Lacrosse 5 4.1 21:07:39 10° W 21:11:35 22° NW 21:15:31 10° NNE
Cosmos 2100 Rocket 4.0 21:13:07 32° SSW 21:16:14 80° W 21:22:36 10° N
Cosmos 1802 Rocket 4.2 21:34:35 64° NW 21:34:35 64° NW 21:39:58 10° N
